CW9236 Weather Reports


Display with metric or nautical units.
time (UTC)temp
F
wind
direction
speed
MPH
gust
MPH
rain 1hr
in
rain 24hr
in
rain mn
in
humidity
%
barometer
mb
20260508180510 72 93 1.0 4.0 0.00 0.00 0.00 83 1011.8
20260508180026 72 82 2.0 6.0 0.00 0.00 0.00 84 1011.7
20260508175508 72 62 2.0 7.0 0.00 0.00 0.00 83 1011.9
20260508175005 72 87 3.0 7.0 0.00 0.00 0.00 83 1011.9
20260508174513 72 91 2.0 4.0 0.00 0.00 0.00 83 1012.0
20260508174006 71 90 0.0 3.0 0.00 0.00 0.00 84 1012.3
20260508173508 71 80 0.0 3.0 0.00 0.00 0.00 84 1012.4
20260508173034 71 80 0.0 4.0 0.00 0.00 0.00 84 1012.4
20260508172506 71 79 2.0 4.0 0.00 0.00 0.00 85 1012.5
20260508172010 71 78 0.0 3.0 0.00 0.00 0.00 85 1012.6
20260508171526 70 74 1.0 3.0 0.00 0.00 0.00 84 1012.7
20260508171010 70 84 1.0 6.0 0.00 0.00 0.00 84 1012.7
20260508170507 70 88 2.0 5.0 0.00 0.00 0.00 84 1012.8
20260508170027 70 96 1.0 4.0 0.00 0.00 0.00 84 1012.8
20260508165509 70 82 1.0 7.0 0.00 0.00 0.00 85 1012.8
20260508165009 70 31 2.0 7.0 0.00 0.00 0.00 84 1012.7
20260508164517 70 80 1.0 4.0 0.00 0.00 0.00 84 1012.8
20260508164009 70 85 2.0 8.0 0.00 0.00 0.00 84 1012.8
20260508163508 70 96 1.0 8.0 0.00 0.00 0.00 83 1012.8
20260508163022 70 63 1.0 5.0 0.00 0.00 0.00 85 1012.8
20260508162508 70 90 3.0 5.0 0.00 0.00 0.00 85 1012.6
20260508162007 69 58 2.0 8.0 0.00 0.00 0.00 85 1012.7
20260508161529 69 59 3.0 8.0 0.00 0.00 0.00 85 1012.8
20260508161010 69 88 2.0 8.0 0.00 0.00 0.00 85 1012.8
20260508160508 69 104 4.0 8.0 0.00 0.00 0.00 85 1013.0
20260508160030 69 76 2.0 5.0 0.00 0.00 0.00 84 1013.2
20260508155506 69 35 1.0 6.0 0.00 0.00 0.00 85 1013.2
20260508155008 69 75 3.0 6.0 0.00 0.00 0.00 85 1013.2
20260508154516 69 109 1.0 4.0 0.00 0.00 0.00 85 1013.2
20260508154011 69 82 1.0 4.0 0.00 0.00 0.00 85 1013.3
20260508153507 69 94 1.0 5.0 0.00 0.00 0.00 85 1013.4
20260508153023 69 68 1.0 5.0 0.00 0.00 0.00 85 1013.4
20260508152509 68 113 0.0 4.0 0.00 0.00 0.00 84 1013.4
20260508152007 68 177 1.0 4.0 0.00 0.00 0.00 84 1013.5
20260508151530 68 75 0.0 4.0 0.00 0.00 0.00 84 1013.7
20260508151015 68 82 1.0 4.0 0.00 0.00 0.00 84 1013.7
20260508150518 68 90 1.0 6.0 0.00 0.00 0.00 84 1013.5
20260508150026 68 107 1.0 7.0 0.00 0.00 0.00 83 1013.6
20260508145507 68 94 1.0 7.0 0.00 0.00 0.00 83 1013.5
20260508145007 68 199 2.0 7.0 0.00 0.00 0.00 83 1013.6
20260508144521 68 92 1.0 5.0 0.00 0.00 0.00 83 1013.6
20260508144008 68 89 1.0 5.0 0.00 0.00 0.00 83 1013.6
20260508143511 68 90 0.0 4.0 0.00 0.00 0.00 83 1013.7
20260508143026 68 113 0.0 4.0 0.00 0.00 0.00 83 1013.7
20260508142511 68 101 1.0 4.0 0.00 0.00 0.00 83 1013.6
20260508142012 69 250 0.0 4.0 0.00 0.00 0.00 83 1013.7
20260508141528 69 277 0.0 6.0 0.00 0.00 0.00 83 1013.7
20260508141011 68 277 1.0 6.0 0.00 0.00 0.00 83 1013.9
20260508140510 68 106 0.0 4.0 0.00 0.00 0.00 83 1013.7
20260508140018 68 117 1.0 4.0 0.00 0.00 0.00 83 1013.6
20260508135508 68 132 1.0 4.0 0.00 0.00 0.00 84 1013.6
20260508135008 68 150 0.0 4.0 0.00 0.00 0.00 84 1013.7
20260508134521 68 245 0.0 2.0 0.00 0.00 0.00 84 1013.6
20260508134010 68 245 0.0 3.0 0.00 0.00 0.00 84 1013.5
20260508133512 68 148 0.0 3.0 0.00 0.00 0.00 84 1013.5
20260508133026 68 118 0.0 2.0 0.00 0.00 0.00 84 1013.6
20260508132511 68 74 0.0 2.0 0.00 0.00 0.00 84 1013.6
20260508132011 68 78 0.0 2.0 0.00 0.00 0.00 85 1013.6
20260508131528 68 76 0.0 3.0 0.00 0.00 0.00 85 1013.4
20260508131012 68 98 0.0 6.0 0.00 0.00 0.00 85 1013.5
20260508130508 68 67 1.0 6.0 0.00 0.00 0.00 85 1013.2
20260508130024 68 278 0.0 3.0 0.00 0.00 0.00 86 1013.3
20260508125507 67 278 1.0 3.0 0.00 0.00 0.00 85 1013.4
20260508125013 67 277 0.0 2.0 0.00 0.00 0.00 85 1013.4
20260508124523 67 277 0.0 6.0 0.00 0.00 0.00 85 1013.4
20260508124009 67 101 0.0 6.0 0.00 0.00 0.00 85 1013.1
20260508123510 67 86 2.0 5.0 0.00 0.00 0.00 86 1013.1
20260508123028 67 82 2.0 5.0 0.00 0.00 0.00 85 1013.2
20260508122508 67 80 0.0 4.0 0.00 0.00 0.00 85 1013.1
20260508122017 67 98 1.0 4.0 0.00 0.00 0.00 85 1013.1
20260508121527 67 278 2.0 3.0 0.00 0.00 0.00 85 1013.1
20260508121009 67 278 0.0 3.0 0.00 0.00 0.00 85 1013.3
20260508120509 67 278 1.0 3.0 0.00 0.00 0.00 85 1013.4
20260508120020 67 278 1.0 3.0 0.00 0.00 0.00 84 1013.5
20260508115511 67 278 0.0 3.0 0.00 0.00 0.00 84 1013.7
20260508115007 67 278 0.0 3.0 0.00 0.00 0.00 83 1013.9
20260508114525 68 285 0.0 2.0 0.00 0.00 0.00 83 1014.0
20260508114008 68 286 0.0 2.0 0.00 0.00 0.00 83 1014.0
20260508113509 68 284 0.0 2.0 0.00 0.00 0.00 83 1014.2
20260508113025 68 284 0.0 2.0 0.00 0.00 0.00 83 1014.1
20260508112510 68 283 0.0 3.0 0.00 0.00 0.00 83 1014.0
20260508112010 68 284 0.0 3.0 0.00 0.00 0.00 83 1014.1
20260508111518 68 287 0.0 1.0 0.00 0.00 0.00 84 1013.8
20260508111005 68 124 0.0 1.0 0.00 0.00 0.00 84 1013.5
20260508110509 68 86 0.0 2.0 0.00 0.00 0.00 84 1013.2
20260508110017 68 84 0.0 2.0 0.00 0.00 0.00 84 1013.0
20260508105506 68 83 0.0 2.0 0.00 0.00 0.00 84 1012.8
20260508105013 68 86 0.0 4.0 0.00 0.00 0.00 83 1012.8
20260508104508 68 73 0.0 8.0 0.00 0.00 0.00 83 1012.9
20260508104006 68 84 4.0 8.0 0.00 0.00 0.00 83 1012.7
20260508103507 68 65 3.0 7.0 0.00 0.00 0.00 83 1012.4
20260508103018 68 83 3.0 6.0 0.00 0.00 0.00 82 1012.7
20260508101521 68 93 1.0 3.0 0.00 0.00 0.00 81 1013.4
20260508101008 68 101 0.0 2.0 0.00 0.00 0.00 81 1013.5
20260508100024 68 105 0.0 2.0 0.00 0.00 0.00 80 1013.7
20260508095002 68 84 1.0 4.0 0.00 0.00 0.00 80 1013.0
20260508094512 68 75 1.0 5.0 0.00 0.00 0.00 80 1012.9
20260508094008 68 284 0.0 6.0 0.00 0.00 0.00 80 1013.3
20260508093507 68 283 0.0 6.0 0.00 0.00 0.00 79 1013.6
20260508092507 68 98 0.0 3.0 0.00 0.00 0.00 79 1013.3
20260508092010 68 95 0.0 3.0 0.00 0.00 0.00 79 1013.4
20260508091007 68 116 0.0 5.0 0.00 0.00 0.00 79 1013.0
20260508090508 68 80 1.0 8.0 0.00 0.00 0.00 79 1012.7
20260508090024 68 71 2.0 8.0 0.00 0.00 0.00 79 1012.3
20260508085508 68 87 2.0 4.0 0.00 0.00 0.00 79 1012.4
20260508085004 68 95 2.0 3.0 0.00 0.00 0.00 79 1012.7
20260508084512 68 90 1.0 3.0 0.00 0.00 0.00 79 1012.8
20260508084009 68 94 1.0 3.0 0.00 0.00 0.00 79 1012.9
20260508083507 68 71 1.0 3.0 0.00 0.00 0.00 78 1013.1
20260508083019 68 98 0.0 2.0 0.00 0.00 0.00 79 1013.4
20260508082508 68 83 0.0 2.0 0.00 0.00 0.00 79 1013.4
20260508082008 68 84 0.0 3.0 0.00 0.00 0.00 79 1013.3
20260508081529 68 66 0.0 3.0 0.00 0.00 0.00 78 1013.4
20260508081009 68 94 0.0 2.0 0.00 0.00 0.00 79 1013.3
20260508080515 68 98 0.0 4.0 0.00 0.00 0.00 79 1013.1
20260508075506 68 70 1.0 4.0 0.00 0.00 0.00 78 1013.1
20260508075007 68 281 1.0 4.0 0.00 0.00 0.00 79 1013.3
20260508074513 68 281 0.0 4.0 0.00 0.00 0.00 78 1013.4
20260508074006 68 281 1.0 3.0 0.00 0.00 0.00 79 1013.7
20260508073508 68 281 0.0 3.0 0.00 0.00 0.00 79 1013.8
20260508073020 68 281 0.0 3.0 0.00 0.00 0.00 79 1013.9
20260508072510 68 281 1.0 4.0 0.00 0.00 0.00 78 1013.8
20260508072011 68 281 0.0 6.0 0.00 0.00 0.00 78 1013.9
20260508071527 68 311 1.0 6.0 0.00 0.00 0.00 78 1014.0
20260508071011 68 285 0.0 4.0 0.00 0.00 0.00 79 1014.0
20260508070511 68 248 0.0 4.0 0.00 0.00 0.00 79 1013.9
20260508070027 68 150 0.0 2.0 0.00 0.00 0.00 78 1013.7
20260508065508 68 126 0.0 3.0 0.00 0.00 0.00 78 1013.9
20260508065006 68 292 0.0 4.0 0.00 0.00 0.00 78 1014.1
20260508064008 68 286 0.0 2.0 0.00 0.00 0.00 78 1014.1
20260508063508 68 308 0.0 2.0 0.00 0.00 0.00 78 1014.0
20260508063024 68 288 0.0 2.0 0.00 0.00 0.00 78 1014.0
20260508062512 68 296 0.0 1.0 0.00 0.00 0.00 78 1014.0
20260508062010 68 49 0.0 2.0 0.00 0.00 0.00 78 1013.8
20260508061525 68 304 0.0 2.0 0.00 0.00 0.00 77 1013.7
20260508061010 68 76 0.0 1.0 0.00 0.00 0.00 77 1013.8
20260508060508 69 76 0.0 1.0 0.00 0.00 0.00 77 1013.7
20260508060026 69 73 0.0 1.0 0.00 0.00 0.00 77 1013.6
20260508052512 69 75 0.0 2.0 0.00 0.00 0.00 75 1013.6
20260508052011 69 78 0.0 3.0 0.00 0.00 0.00 75 1013.4
20260508051530 69 82 1.0 3.0 0.00 0.00 0.00 75 1013.4
20260508051011 69 106 0.0 1.0 0.00 0.00 0.00 74 1013.7
20260508050513 69 137 0.0 2.0 0.00 0.00 0.00 74 1013.8
20260508050016 69 79 0.0 3.0 0.00 0.00 0.00 74 1013.7
20260508045506 69 113 0.0 3.0 0.00 0.00 0.00 73 1013.8
20260508045008 70 90 0.0 2.0 0.00 0.00 0.00 73 1013.8
20260508044004 70 92 0.0 3.0 0.00 0.00 0.00 72 1014.0
20260508043503 70 85 0.0 3.0 0.00 0.00 0.00 72 1014.2
20260508043008 70 86 1.0 3.0 0.00 0.00 0.00 72 1014.0
20260508042505 70 85 1.0 2.0 0.00 0.00 0.00 71 1014.2
20260508042007 70 80 0.0 2.0 0.00 0.00 0.00 72 1014.2
20260508041508 70 85 0.0 3.0 0.00 0.00 0.00 71 1014.0
20260508041007 70 85 0.0 3.0 0.00 0.00 0.00 71 1014.1
20260508040508 70 119 0.0 3.0 0.00 0.00 0.00 71 1013.9
20260508040018 70 105 0.0 3.0 0.00 0.00 0.00 70 1013.8
20260508035507 71 131 1.0 3.0 0.00 0.00 0.00 70 1013.9
20260508035007 71 93 0.0 3.0 0.00 0.00 0.00 70 1013.7
20260508034505 71 74 1.0 6.0 0.00 0.00 0.00 69 1013.8
20260508034004 71 97 1.0 7.0 0.00 0.00 0.00 69 1013.8
20260508033507 71 82 2.0 7.0 0.00 0.00 0.00 70 1013.3
20260508033009 71 71 3.0 6.0 0.00 0.00 0.00 70 1013.2
20260508032507 71 82 3.0 7.0 0.00 0.00 0.00 70 1013.4
20260508032008 71 96 3.0 7.0 0.00 0.00 0.00 69 1013.7
20260508031510 71 81 2.0 4.0 0.00 0.00 0.00 69 1013.9
20260508031005 71 90 2.0 3.0 0.00 0.00 0.00 70 1014.2
20260508030508 71 74 1.0 3.0 0.00 0.00 0.00 70 1014.3
20260508030016 71 107 0.0 3.0 0.00 0.00 0.00 70 1014.4
20260508025511 71 88 0.0 3.0 0.00 0.00 0.00 70 1014.4
20260508025009 71 81 1.0 3.0 0.00 0.00 0.00 70 1014.2
20260508024504 71 84 0.0 2.0 0.00 0.00 0.00 71 1014.4
20260508024004 71 125 0.0 2.0 0.00 0.00 0.00 71 1014.5
20260508023504 71 106 0.0 2.0 0.00 0.00 0.00 71 1014.5
20260508023011 72 137 0.0 2.0 0.00 0.00 0.00 71 1014.4
20260508022506 72 136 0.0 2.0 0.00 0.00 0.00 71 1014.1
20260508022007 72 99 0.0 3.0 0.00 0.00 0.00 71 1014.0
20260508021517 72 98 0.0 3.0 0.00 0.00 0.00 71 1014.2
20260508021008 72 149 0.0 3.0 0.00 0.00 0.00 71 1014.0
20260508020509 72 153 0.0 3.0 0.00 0.00 0.00 70 1014.2
20260508020024 73 244 0.0 3.0 0.00 0.00 0.00 70 1014.3
20260508015508 73 242 0.0 2.0 0.00 0.00 0.00 70 1014.3
20260508014504 73 115 0.0 2.0 0.00 0.00 0.00 70 1014.1
20260508014006 73 94 0.0 2.0 0.00 0.00 0.00 71 1014.1
20260508013503 73 81 0.0 1.0 0.00 0.00 0.00 71 1013.9
20260508013010 73 69 0.0 1.0 0.00 0.00 0.00 70 1014.1
20260508012508 73 60 0.0 1.0 0.00 0.00 0.00 69 1014.2
20260508010025 74 94 0.0 2.0 0.00 0.00 0.00 68 1013.9
20260508005004 74 84 0.0 2.0 0.00 0.00 0.00 69 1014.0
20260508004508 74 95 0.0 3.0 0.00 0.00 0.00 67 1013.8
20260508004006 74 87 1.0 3.0 0.00 0.00 0.00 67 1013.9
20260508003503 74 75 1.0 3.0 0.00 0.00 0.00 67 1013.8
20260508002508 75 92 0.0 5.0 0.00 0.00 0.00 67 1013.8
20260508001007 75 91 1.0 4.0 0.00 0.00 0.00 65 1014.1
20260508000514 75 103 1.0 4.0 0.00 0.00 0.00 65 1014.1
20260508000025 75 92 1.0 6.0 0.00 0.00 0.00 65 1014.2
20260507235508 75 162 1.0 6.0 0.00 0.00 0.00 65 1014.2
20260507235004 75 210 1.0 5.0 0.00 0.00 0.00 65 1014.3
20260507234517 75 144 1.0 6.0 0.00 0.00 0.00 65 1014.2
20260507234007 76 177 0.0 6.0 0.00 0.00 0.00 65 1014.3
20260507233511 76 123 1.0 5.0 0.00 0.00 0.00 65 1014.3
20260507233019 76 125 0.0 4.0 0.00 0.00 0.00 66 1014.3
20260507232510 76 154 1.0 4.0 0.00 0.00 0.00 66 1014.1
20260507232009 76 142 1.0 3.0 0.00 0.00 0.00 67 1014.1
20260507231531 76 90 0.0 4.0 0.00 0.00 0.00 67 1014.0
20260507231011 76 83 1.0 4.0 0.00 0.00 0.00 66 1013.9
20260507230511 76 90 1.0 4.0 0.00 0.00 0.00 66 1013.9
20260507230026 76 280 1.0 6.0 0.00 0.00 0.00 67 1013.8
20260507225506 76 279 2.0 7.0 0.00 0.00 0.00 67 1013.7
20260507225005 77 279 0.0 7.0 0.00 0.00 0.00 67 1013.6
20260507224512 77 286 1.0 7.0 0.00 0.00 0.00 67 1013.5
20260507224006 77 273 1.0 6.0 0.00 0.00 0.00 68 1013.5
20260507223512 77 273 1.0 6.0 0.00 0.00 0.00 67 1013.5
20260507223018 76 256 1.0 6.0 0.00 0.00 0.00 68 1013.5
20260507222510 76 53 1.0 3.0 0.00 0.00 0.00 69 1013.4
20260507222008 77 277 1.0 3.0 0.00 0.00 0.00 68 1013.4
20260507221522 77 277 1.0 3.0 0.00 0.00 0.00 68 1013.5
20260507221013 76 277 1.0 6.0 0.00 0.00 0.00 68 1013.6
20260507220509 76 277 1.0 6.0 0.00 0.00 0.00 68 1013.7
20260507220025 76 277 1.0 6.0 0.00 0.00 0.00 68 1013.8
20260507215507 76 277 0.0 5.0 0.00 0.00 0.00 68 1013.8
20260507215008 76 118 1.0 6.0 0.00 0.00 0.00 68 1013.9
20260507214514 76 197 0.0 6.0 0.00 0.00 0.00 68 1013.9
20260507214009 77 87 0.0 4.0 0.00 0.00 0.00 68 1013.9
20260507213508 77 120 1.0 7.0 0.00 0.00 0.00 69 1014.1
20260507213024 77 250 0.0 7.0 0.00 0.00 0.00 68 1014.1
20260507212507 76 247 0.0 4.0 0.00 0.00 0.00 69 1014.1
20260507212009 76 278 0.0 4.0 0.00 0.00 0.00 68 1014.1
20260507211524 76 277 0.0 4.0 0.00 0.00 0.00 68 1014.1
20260507211010 76 277 1.0 4.0 0.00 0.00 0.00 68 1014.2
20260507210509 76 246 1.0 4.0 0.00 0.00 0.00 67 1014.2
20260507210024 76 278 0.0 8.0 0.00 0.00 0.00 68 1014.3
20260507205507 76 280 1.0 8.0 0.00 0.00 0.00 67 1014.3
20260507205006 76 271 1.0 6.0 0.00 0.00 0.00 69 1014.4
20260507204518 76 244 1.0 6.0 0.00 0.00 0.00 68 1014.4
20260507204007 76 82 1.0 6.0 0.00 0.00 0.00 68 1014.5
20260507203510 76 46 0.0 6.0 0.00 0.00 0.00 70 1014.5
20260507203025 76 179 0.0 8.0 0.00 0.00 0.00 69 1014.5
20260507202510 76 281 0.0 8.0 0.00 0.00 0.00 70 1014.5
20260507202012 76 275 1.0 7.0 0.00 0.00 0.00 69 1014.5
20260507201526 76 159 0.0 7.0 0.00 0.00 0.00 71 1014.6
20260507201011 76 165 0.0 7.0 0.00 0.00 0.00 69 1014.6
20260507200508 75 55 1.0 7.0 0.00 0.00 0.00 70 1014.6
20260507195008 75 284 0.0 7.0 0.00 0.00 0.00 71 1014.7
20260507194519 74 105 1.0 7.0 0.00 0.00 0.00 70 1014.8
20260507194006 75 98 1.0 7.0 0.00 0.00 0.00 71 1014.7
20260507192508 74 94 2.0 7.0 0.00 0.00 0.00 71 1015.1
20260507192009 74 273 0.0 7.0 0.00 0.00 0.00 72 1015.3
20260507191004 74 80 1.0 9.0 0.00 0.00 0.00 71 1015.5
20260507190508 74 250 0.0 5.0 0.00 0.00 0.00 71 1015.6
20260507185506 72 275 2.0 9.0 0.00 0.00 0.00 72 1015.7
20260507185010 72 272 1.0 9.0 0.00 0.00 0.00 71 1015.8
20260507184009 72 273 1.0 6.0 0.00 0.00 0.00 72 1016.0
20260507183511 72 272 0.0 4.0 0.00 0.00 0.00 72 1016.0
20260507183034 71 82 1.0 7.0 0.00 0.00 0.00 73 1016.1
20260507182505 72 86 1.0 9.0 0.00 0.00 0.00 72 1016.2
20260507182004 71 271 1.0 9.0 0.00 0.00 0.00 72 1016.2
20260507181508 71 81 0.0 6.0 0.00 0.00 0.00 74 1016.1
20260507181008 71 284 0.0 9.0 0.00 0.00 0.00 74 1016.2